Find Starlink 31561

NORAD ID: 59352 Int'l Des: 2024-060 Owner: SPXS Country: US Constellation: starlink operational
LEOCIRCULAR

当前视图

正在加载3D地球...

About Starlink 31561

Starlink 31561 (NORAD 59352) is a starlink constellation satellite (v2 mini) launched Mar 31, 2024 by SPXS of US. It operates in LEO, CIRCULAR orbit with a mass of 730.00 kg.

即将过境

Passes for default location (London). Set your location on the main map for personalized predictions.

高度历史

Loading altitude history...

两行轨道根数

1 59352U 24060E 26263.97234857 -.00000660 00000-0 -14472-4 0 9996
2 59352 43.0013 236.5882 0000854 281.1616 78.9140 15.27574149139932
Epoch: Sep 20, 2026 • Age: 14 hours

当前状态

高度 493.7 km
远地点 / 近地点 N/A
速度 7.62 km/s
星下点 -37.73°S, 85.69°W
发射日期 Mar 31, 2024
运行时间 2.4 years
类型 internet

技术详情

分类 Payload
质量 730.00 kg
干质量 700.00 kg
长度 0.30 m
跨度 29.00 m
形状 ? Box + pan
制造商 SPXS
平台类型 Starlink V2M
阶段状态 In Orbit
所有者/国家 SPXS/US

Most Searched